McMinnville, OR

3:42 AM PDT on April 29, 2017 (GMT -0700)
McMinnville Municipal

Weather History for KMMV - April, 2013

Change the Weather History Date:

Tuesday, April 2, 2013

  Actual Average Record
Temperature  
Mean Temperature 56 °F 48 °F  
Max Temperature 65 °F 59 °F 77 °F (1944)
Min Temperature 46 °F 39 °F 25 °F (1972)
Degree Days  
Heating Degree Days 9 17  
Month to date heating degree days 18 34  
Since 1 July heating degree days 3634 3985  
Cooling Degree Days 0 0  
Month to date cooling degree days 0 0  
Year to date cooling degree days 0 0  
Growing Degree Days 5 (Base 50)    
Moisture  
Dew Point 46 °F    
Average Humidity 73    
Maximum Humidity 93    
Minimum Humidity 52    
Precipitation  
Precipitation 0.00 in 0.13 in 0.85 in (1958)
Month to date precipitation 0.00 0.27  
Year to date precipitation 4.60 14.84  
Snow  
Snow 0.00 in - - ()
Month to date snowfall 0.0  
Snow Depth 0.00 in    
Sea Level Pressure  
Sea Level Pressure 30.20 in    
Wind  
Wind Speed 5 mph (SW)    
Max Wind Speed 12 mph    
Max Gust Speed 15 mph    
Visibility 10 miles    
Events      
T = Trace of Precipitation, MM = Missing Value Source: NWS Daily Summary

Daily Weather History Graph

Daily Weather History Graph

Search for Another Location

Airport or City:

Trip Planner

Search our weather history database for the weather conditions in past years. The results will help you decide how hot, cold, wet, or windy it might be!

Date:

Astronomy

Apr. 02, 2013 Rise Set
Actual Time 6:50 AM PDT 7:42 PM PDT
Civil Twilight 6:20 AM PDT 8:12 PM PDT
Nautical Twilight 5:45 AM PDT 8:47 PM PDT
Astronomical Twilight 5:08 AM PDT 9:25 PM PDT
Moon 2:03 AM PDT (4/2) 11:36 AM PDT (4/2)
Length of Visible Light 13h 51m
Length of Day
12h 51m
Waning Gibbous, 55% of the Moon is Illuminated
Apr 2
Waning Gibbous
Apr 2
Last Quarter
Apr 10
New
Apr 18
First Quarter
Apr 25
Full

Hourly Weather History & Observations

Time (PDT) Temp. Dew Point Humidity Pressure Visibility Wind Dir Wind Speed Gust Speed Precip Events Conditions
12:53 AM 46.9 °F 44.1 °F 90% 30.19 in 10.0 mi SSW 8.1 mph - N/A   Clear
1:53 AM 48.0 °F 45.0 °F 89% 30.21 in 10.0 mi SW 6.9 mph - N/A   Clear
2:53 AM 48.0 °F 44.1 °F 86% 30.21 in 10.0 mi SW 8.1 mph - N/A   Clear
3:53 AM 48.0 °F 44.1 °F 86% 30.21 in 10.0 mi SW 3.5 mph - N/A   Mostly Cloudy
4:19 AM 48.2 °F 44.6 °F 87% 30.21 in 10.0 mi Calm Calm - N/A   Overcast
4:53 AM 50.0 °F 46.0 °F 86% 30.22 in 10.0 mi Calm Calm - N/A   Overcast
5:53 AM 50.0 °F 46.0 °F 86% 30.22 in 10.0 mi South 4.6 mph - N/A   Overcast
6:53 AM 48.0 °F 44.1 °F 86% 30.22 in 10.0 mi SSW 4.6 mph - N/A   Mostly Cloudy
7:53 AM 50.0 °F 46.0 °F 86% 30.22 in 10.0 mi Calm Calm - N/A   Clear
8:28 AM 51.8 °F 46.4 °F 82% 30.22 in 10.0 mi North - - N/A   Partly Cloudy
8:53 AM 53.1 °F 46.9 °F 80% 30.22 in 10.0 mi North - - N/A   Scattered Clouds
9:06 AM 53.6 °F 46.4 °F 77% 30.22 in 10.0 mi North - - N/A   Mostly Cloudy
9:25 AM 51.8 °F 46.4 °F 82% 30.22 in 10.0 mi North - - N/A   Overcast
9:53 AM 53.1 °F 46.0 °F 77% 30.22 in 10.0 mi North - - N/A   Overcast
10:53 AM 55.0 °F 46.9 °F 74% 30.23 in 10.0 mi North - - N/A   Overcast
11:53 AM 57.0 °F 48.9 °F 74% 30.23 in 10.0 mi North - - N/A   Overcast
12:24 PM 57.2 °F 48.2 °F 72% 30.22 in 10.0 mi SSW 8.1 mph - N/A   Partly Cloudy
12:53 PM 57.9 °F 48.0 °F 70% 30.22 in 10.0 mi SSW 5.8 mph - N/A   Clear
1:53 PM 61.0 °F 48.9 °F 64% 30.21 in 10.0 mi South 5.8 mph - N/A   Partly Cloudy
2:53 PM 62.1 °F 48.9 °F 62% 30.19 in 10.0 mi South 5.8 mph - N/A   Mostly Cloudy
3:53 PM 64.0 °F 48.0 °F 56% 30.17 in 10.0 mi South 6.9 mph - N/A   Clear
4:53 PM 64.9 °F 46.9 °F 52% 30.16 in 10.0 mi SSW 5.8 mph - N/A   Scattered Clouds
5:53 PM 64.9 °F 48.0 °F 54% 30.14 in 10.0 mi SSW 5.8 mph - N/A   Clear
6:53 PM 62.1 °F 48.9 °F 62% 30.14 in 10.0 mi WSW 6.9 mph - N/A   Clear
7:53 PM 57.0 °F 48.0 °F 72% 30.14 in 10.0 mi WSW 8.1 mph - N/A   Clear
8:53 PM 51.1 °F 46.0 °F 83% 30.16 in 10.0 mi WSW 6.9 mph - N/A   Clear
9:53 PM 52.0 °F 46.0 °F 80% 30.17 in 10.0 mi West 5.8 mph - N/A   Clear
10:53 PM 48.9 °F 45.0 °F 86% 30.17 in 10.0 mi WNW 5.8 mph - N/A   Clear
11:53 PM 46.9 °F 44.1 °F 90% 30.17 in 10.0 mi West 5.8 mph - N/A   Clear